Temperature
20 20 20 19 19 19 20 21 21 22 23 22 22 21 20 19 19 19 19 19 19 19 19 19 19 19 19 19 19 19 20 20 20 20 20 19 19 19 19 19 19 19 19 19 19 19 19 19 19
21 20 20 19 19 19 21 21 21 23 23 23 22 21 20 19 19 19 19 19 19 19 19 19 19 19 19 19 19 19 19 19 19 19 19 19 19 19 19 19 19 19 19 19 19 19 19 19 19
21 20 20 19 20 20 21 21 22 23 24 23 21 20 19 19 19 19 19 19 19 19 19 19 19 19 19 19 19 19 19 19 19 19 19 19 19 19 19 19 19 19 19 19 19 19 19 19 19
21 21 20 19 20 21 21 21 22 23 23 22 20 19 19 19 19 19 19 19 19 19 19 19 19 19 19 19 19 19 19 19 19 19 19 19 19 19 19 19 19 19 19 19 19 19 19 19 19
21 21 19 20 20 21 21 22 23 22 23 21 20 19 18 19 19 19 19 19 19 19 18 18 18 18 18 18 18 18 18 18 18 19 19 19 19 19 19 19 19 19 19 19 19 19 19 19 19
22 19 19 20 20 21 21 22 23 22 22 21 20 19 18 19 19 19 19 19 19 18 18 18 18 18 18 18 18 18 18 18 18 18 18 18 18 19 19 19 19 19 19 19 19 19 19 19 19
21 19 20 20 20 21 22 23 22 21 21 21 21 19 18 19 19 19 19 19 18 18 18 18 18 18 17 17 17 17 17 17 17 18 18 18 18 18 18 18 18 18 18 19 19 19 19 19 19
22 19 20 20 20 21 23 23 23 22 22 21 21 19 18 19 19 19 19 18 18 18 18 18 17 17 17 17 17 17 17 17 17 17 17 17 17 17 18 18 18 18 18 18 18 18 18 18 19
22 19 19 20 20 21 23 23 22 22 22 21 21 20 20 19 19 19 19 18 18 18 18 18 17 17 17 17 16 16 16 16 16 17 17 17 17 17 17 17 17 18 18 18 18 18 18 18 18
21 19 20 21 21 21 23 23 22 21 20 20 20 20 20 19 19 19 19 18 18 18 18 17 17 17 16 16 16 16 16 16 16 16 16 16 16 16 17 17 17 17 17 17 18 18 18 18 18
20 19 20 21 22 23 23 23 23 21 20 20 20 20 20 20 19 19 19 19 18 18 17 17 17 16 16 16 16 16 16 16 16 16 16 16 16 16 16 16 17 17 17 17 17 18 18 18 18
20 20 20 21 22 23 23 23 22 21 22 22 21 21 20 20 19 19 19 18 18 18 17 17 16 16 16 16 16 15 15 15 15 16 16 16 16 16 16 16 16 16 17 17 17 17 17 18 18
19 20 20 21 22 23 23 22 22 21 22 21 21 21 20 20 20 19 19 19 18 18 17 17 16 16 16 15 15 15 15 15 15 15 15 15 15 15 16 16 16 16 16 16 17 17 17 17 17
20 20 20 21 21 22 22 22 21 21 22 21 21 21 20 20 20 19 19 18 18 17 17 16 16 16 15 15 15 15 15 15 15 15 15 15 15 15 15 15 15 16 16 16 16 16 17 17 17
20 20 20 20 21 21 22 21 21 22 22 21 21 21 20 20 20 19 19 18 18 17 17 16 16 15 15 15 15 15 14 14 14 14 14 14 15 15 15 15 15 15 15 16 16 16 16 16 17
20 20 20 20 20 21 21 20 21 22 21 21 21 21 20 20 20 19 19 18 18 17 16 16 15 15 15 15 14 14 14 14 14 14 14 14 14 14 14 15 15 15 15 15 16 16 16 16 17
19 19 20 20 20 20 20 20 20 21 21 21 21 21 20 20 19 19 18 18 17 17 16 16 15 15 15 14 14 14 14 14 14 14 14 14 14 14 14 14 14 14 15 15 15 15 16 16 16
19 19 20 20 21 20 20 19 20 21 21 21 21 21 20 20 19 19 18 18 17 16 16 15 15 15 14 14 14 14 14 14 14 14 14 14 14 14 14 14 14 14 14 14 15 15 15 16 16
20 20 20 21 22 21 20 20 19 20 21 20 20 20 20 19 19 18 18 17 17 16 16 15 15 14 14 14 14 14 14 14 13 13 13 13 13 13 13 13 14 14 14 14 14 15 15 15 15
21 21 21 21 22 21 20 20 20 20 20 21 21 20 20 19 18 18 17 17 17 16 16 15 15 14 14 14 14 13 13 13 13 13 13 13 13 13 13 13 13 13 13 14 14 14 14 15 15
21 20 21 22 22 22 21 20 19 20 20 21 21 21 20 19 19 18 17 17 16 16 15 15 14 14 14 13 13 13 13 13 13 13 13 13 13 13 13 13 13 13 13 13 14 14 14 14 14
21 22 22 22 21 19 21 19 19 19 19 19 20 20 20 19 19 18 18 17 16 16 15 15 14 14 13 13 13 13 13 13 13 13 13 13 13 13 13 13 13 13 13 13 13 14 14 14 14
21 23 23 22 21 19 19 18 18 19 19 19 19 20 20 19 19 18 18 17 16 16 15 15 14 14 13 13 13 13 13 13 12 12 12 13 13 13 13 13 13 13 13 13 13 13 13 14 14
22 21 20 17 17 19 20 18 19 17 19 19 19 19 19 19 19 18 17 17 16 16 15 14 14 14 13 13 13 13 13 13 12 12 12 12 12 12 13 12 13 13 13 13 13 13 13 13 13
21 18 18 19 17 18 19 19 18 19 19 19 19 19 19 19 19 18 17 17 16 16 15 14 14 14 13 13 13 13 13 12 12 12 12 12 12 12 12 12 12 12 13 13 13 13 13 13 13
21 18 18 19 18 18 19 19 18 20 20 21 21 20 20 19 19 18 18 17 16 16 15 15 14 14 13 13 13 13 13 12 12 12 12 12 12 12 12 12 12 12 12 13 13 13 13 13 13
22 19 18 17 19 18 18 19 20 20 19 19 19 20 19 19 19 18 18 17 16 16 15 15 14 14 13 13 13 13 13 12 12 12 12 12 12 12 12 12 12 12 12 12 13 13 13 13 13
22 19 17 18 18 18 19 19 17 19 18 18 18 19 19 19 19 18 18 17 16 16 15 15 14 14 14 13 13 13 13 12 12 12 12 12 12 12 12 12 12 12 12 12 12 12 13 13 13
22 22 18 15 16 17 18 18 18 18 18 18 18 20 20 19 19 18 18 17 16 16 15 15 14 14 14 13 13 13 13 13 12 12 12 12 12 12 12 12 12 12 12 12 12 12 12 13 13
22 21 18 18 18 16 16 17 19 18 19 19 20 21 20 20 19 18 18 17 16 16 16 15 15 14 14 14 13 13 13 13 12 12 12 12 12 12 12 12 12 12 12 12 12 12 12 12 13
Wind_Speed
11 8 4 2 2 3 1 2 2 1 3 5 10 11 9 6 5 5 2 5 10 9 10 11 10 9 8 7 6 5 4 4 4 4 4 4 4 4 4 3 3 2 2 2 1 1 1 2 2
8 5 3 2 3 1 2 2 1 2 5 7 9 9 8 6 4 4 2 8 11 10 10 9 10 8 7 6 5 5 4 4 4 4 5 5 5 5 4 4 4 3 3 3 2 1 0 1 1
6 3 1 2 2 2 2 2 1 5 7 5 6 6 5 4 3 2 3 9 9 8 9 9 10 8 7 5 5 4 4 4 4 5 5 5 6 6 6 6 5 5 4 4 4 3 2 2 2
3 2 2 3 2 2 2 2 2 5 6 6 6 6 4 4 2 2 6 9 9 7 7 8 9 8 7 5 4 4 4 4 5 5 6 6 7 7 7 7 7 7 6 6 5 5 4 4 4
2 3 3 2 0 2 1 1 3 5 4 5 7 6 3 2 3 5 6 7 8 6 6 6 7 6 6 5 5 4 4 5 6 6 7 7 8 8 8 8 8 8 8 7 7 7 6 6 6
3 3 3 0 1 1 2 1 5 7 7 6 7 6 2 1 3 4 6 6 6 6 4 4 4 4 4 4 5 5 5 5 6 7 7 8 8 9 9 10 10 10 10 9 9 8 8 8 8
3 3 2 2 1 1 1 2 4 6 6 4 5 6 3 2 3 4 5 6 5 5 4 3 2 1 2 4 5 6 6 7 8 8 8 9 10 10 10 11 12 12 11 10 10 10 10 10 9
4 4 2 1 2 3 2 2 4 6 5 3 4 7 5 5 4 5 5 4 3 3 2 1 1 2 3 4 5 5 6 7 8 9 9 10 10 11 11 12 13 13 13 12 12 11 12 11 11
4 4 1 4 5 4 3 4 2 4 6 4 4 5 6 7 6 6 4 3 2 2 1 1 0 1 2 3 5 6 7 8 8 8 9 9 7 8 9 11 12 13 13 13 13 13 13 12 12
4 3 3 4 5 5 4 5 6 4 6 4 4 4 6 7 7 6 5 4 3 2 2 2 2 2 3 3 3 5 6 8 8 8 8 7 7 8 8 10 12 12 13 13 13 13 13 11 9
3 4 3 4 6 4 4 4 4 8 4 7 9 9 7 7 6 6 5 4 4 2 3 2 2 2 2 2 3 4 5 6 7 8 8 7 6 7 7 6 8 9 9 8 9 9 8 8 7
3 1 2 3 3 1 4 4 4 5 7 10 12 11 9 8 7 7 7 5 4 4 3 2 2 3 3 3 3 3 3 4 4 7 7 4 3 3 3 3 5 5 5 4 5 4 6 6 7
3 2 2 3 2 1 3 5 6 5 8 10 10 10 9 8 7 7 7 6 5 4 3 2 3 3 3 3 3 3 3 3 5 5 6 4 2 3 3 3 3 4 5 4 3 4 4 5 4
5 4 3 3 2 1 3 3 5 6 9 11 10 10 9 9 9 7 7 6 5 4 3 2 3 3 3 3 3 3 3 5 5 5 6 5 2 2 2 3 3 3 4 4 4 4 4 4 3
4 3 1 3 3 1 3 1 6 9 10 10 10 9 9 8 9 9 8 7 6 4 2 2 2 3 3 3 3 3 3 4 4 5 7 6 4 2 2 2 3 3 4 3 3 3 2 3 3
2 2 1 4 2 1 4 6 8 9 11 10 9 8 8 7 7 8 8 7 6 5 3 1 2 3 2 2 3 2 3 4 3 5 6 6 6 4 2 2 3 3 2 1 2 2 2 2 2
2 1 3 3 4 3 4 7 7 8 10 9 9 8 8 7 6 6 7 7 6 5 4 2 2 2 2 3 3 3 3 4 4 5 5 5 6 5 2 2 3 3 1 1 2 1 2 2 2
5 4 3 5 5 6 5 8 7 8 8 9 8 7 7 8 7 7 7 7 6 5 4 2 2 2 2 3 3 4 4 4 4 4 4 6 5 5 3 2 3 2 2 2 2 1 2 2 3
6 4 4 6 6 7 9 9 9 9 8 8 7 6 8 7 6 6 6 6 6 4 4 3 2 2 2 2 2 3 3 4 4 4 5 5 5 5 3 3 3 2 1 2 2 1 1 2 1
4 2 2 4 5 7 6 7 7 8 10 9 9 9 9 7 6 5 6 5 5 4 3 4 3 2 2 1 1 2 2 3 3 4 5 6 6 6 4 2 2 2 1 2 1 0 1 1 1
3 5 5 5 2 2 2 4 2 2 4 5 7 8 10 11 10 8 6 6 5 4 3 4 2 1 1 1 1 2 3 3 4 4 4 5 5 5 4 3 3 2 1 2 2 1 2 2 1
4 6 6 3 2 3 2 1 5 3 4 6 6 7 9 9 9 8 7 7 6 4 3 3 2 1 1 2 2 2 2 3 4 4 4 6 5 5 5 3 3 3 2 3 3 2 2 2 1
7 6 3 0 1 3 1 4 5 2 5 6 7 7 8 9 10 9 8 8 6 5 4 3 2 0 2 2 2 2 2 3 4 4 6 6 6 5 5 4 3 3 2 3 3 2 2 2 2
3 5 7 6 5 2 4 5 5 5 8 7 6 7 8 9 8 8 7 7 5 4 3 2 1 1 2 2 2 1 2 3 4 5 6 5 5 5 5 4 3 3 3 3 3 3 3 2 3
5 6 4 5 4 5 3 4 7 7 6 8 9 9 8 9 8 8 8 7 5 4 3 2 2 1 2 2 2 2 2 2 3 4 4 5 4 4 5 5 4 3 3 3 2 2 3 3 3
4 8 6 4 4 5 3 2 5 3 5 6 8 9 9 9 8 9 9 7 6 6 5 3 2 2 2 2 2 2 2 2 3 4 4 4 4 5 5 5 4 4 3 3 2 2 2 2 3
5 4 7 6 2 1 3 2 4 0 3 5 6 7 9 9 9 9 8 7 6 6 5 4 4 2 1 2 2 2 3 3 4 4 4 4 4 5 5 5 4 4 3 3 2 1 2 2 2
6 7 6 4 2 1 3 3 5 8 9 8 8 8 8 8 8 8 7 7 6 6 4 3 4 3 2 1 2 2 3 4 4 4 5 5 5 5 6 5 4 4 3 2 1 1 2 2 2
2 3 5 4 5 5 3 6 7 11 10 10 10 9 9 9 9 8 7 6 6 5 4 4 4 3 2 2 1 2 3 3 4 3 4 4 4 5 5 5 5 4 4 3 1 2 2 2 2
6 6 7 4 2 4 4 7 6 9 9 9 9 9 9 9 9 8 8 6 5 5 4 4 4 3 3 2 1 1 2 3 3 4 4 4 5 5 5 4 4 4 4 3 2 2 2 2 2
Wind_Direction
185 156 110 79 37 33 323 272 223 340 61 59 73 79 79 60 74 117 241 149 141 147 152 151 149 149 150 153 156 160 164 169 172 169 171 172 175 175 173 169 164 163 160 148 135 101 64 56 48
162 145 130 97 86 60 291 286 42 56 128 118 74 71 73 69 70 89 88 133 138 140 146 147 147 147 150 156 164 174 185 191 197 197 196 196 198 199 201 203 204 203 204 203 201 211 230 333 344
161 162 141 109 118 180 218 257 140 74 89 95 76 55 65 64 56 80 138 135 131 133 140 147 147 149 153 159 169 181 193 204 213 215 215 215 212 214 217 219 224 221 222 225 222 220 230 252 274
140 75 52 72 93 239 197 222 137 94 79 71 98 73 60 30 64 114 125 129 126 130 141 149 148 151 157 165 178 189 201 213 219 222 225 225 222 223 224 226 229 230 230 230 227 225 232 241 255
87 86 58 53 249 280 254 183 93 82 80 84 94 91 77 19 99 108 112 122 127 138 149 155 153 158 168 180 192 210 224 232 235 233 233 233 231 232 233 235 234 234 233 232 230 229 232 238 246
67 73 78 97 256 300 318 54 85 84 96 107 99 106 118 205 115 112 113 113 124 135 140 155 163 173 188 201 212 224 236 246 252 251 247 246 240 237 239 240 237 235 233 232 232 231 233 237 242
125 110 134 175 187 285 188 99 94 101 89 85 113 109 147 223 173 134 121 118 120 130 136 150 169 186 216 231 240 247 251 255 260 264 261 258 254 250 248 246 243 240 236 233 231 229 232 236 240
141 110 105 165 178 227 197 120 116 112 100 80 99 130 170 208 175 125 107 104 112 121 132 145 215 277 286 278 267 269 277 272 273 272 271 268 263 261 262 259 252 246 242 237 234 232 233 235 238
95 78 168 203 198 222 183 127 84 69 90 62 78 140 167 161 135 114 103 84 91 106 127 120 73 335 299 284 285 293 295 291 285 282 281 278 274 270 267 264 259 255 249 242 238 234 235 235 238
93 124 230 231 207 195 177 144 136 103 95 90 94 119 138 138 135 138 138 133 123 118 94 76 65 39 19 338 315 302 298 296 291 283 281 281 275 269 266 264 268 267 258 248 243 240 238 234 232
119 164 227 257 237 175 154 143 123 131 152 171 164 164 158 150 149 143 138 140 142 129 87 73 56 41 28 351 342 323 313 305 301 290 279 277 279 276 275 272 275 277 268 251 245 245 235 224 219
119 171 214 259 273 173 166 137 115 159 185 176 168 164 159 154 150 144 138 136 124 100 96 73 46 40 22 15 353 342 333 320 312 300 291 275 269 274 272 267 269 268 264 249 237 230 234 230 226
141 146 288 282 337 89 140 143 141 162 159 156 154 152 157 152 147 148 141 130 118 107 96 72 58 47 25 18 347 354 338 331 329 328 318 296 268 279 278 271 269 265 259 249 238 232 230 232 233
175 170 195 251 256 198 137 159 136 183 162 158 158 162 164 157 151 137 126 121 118 117 109 78 73 54 35 15 345 330 338 338 340 339 336 335 313 297 302 293 288 277 267 251 235 234 233 228 226
143 131 229 251 228 212 114 239 212 186 168 168 173 173 170 164 150 145 147 140 138 134 112 88 103 56 34 10 349 350 343 346 344 344 348 350 344 333 309 311 304 291 287 274 251 242 240 239 236
92 85 245 256 207 208 132 241 246 186 172 179 185 181 173 170 156 151 147 140 136 127 115 84 54 53 30 11 352 345 350 349 342 344 347 347 349 352 347 335 308 301 309 284 256 233 240 251 247
48 179 233 263 210 193 183 237 244 195 179 186 194 189 174 167 151 154 149 145 136 130 127 95 61 49 21 8 356 343 344 343 338 340 342 338 341 346 349 323 306 318 320 302 282 242 217 236 248
202 201 225 230 213 187 213 242 235 207 190 191 195 188 169 168 170 166 153 143 128 120 113 89 63 38 21 6 359 350 347 339 337 338 334 333 335 337 337 310 312 323 330 314 305 273 240 228 235
166 174 233 239 205 182 220 239 235 210 198 191 190 176 170 173 169 156 144 134 118 104 88 68 59 25 19 4 351 340 331 325 330 328 332 328 329 330 320 313 314 320 308 289 287 270 267 250 212
140 154 238 265 217 193 227 251 240 201 199 188 178 170 165 153 150 148 141 130 124 118 94 77 71 47 24 339 287 272 285 294 299 311 324 324 326 326 318 301 295 297 301 314 298 260 269 262 176
162 181 207 228 283 277 181 338 292 212 177 170 168 163 161 161 162 160 146 138 133 126 116 107 111 87 26 2 348 344 344 335 335 329 324 318 322 324 318 304 286 279 242 252 258 223 199 236 247
204 214 206 202 90 290 146 247 280 223 172 182 181 166 164 160 158 158 152 145 148 156 144 126 129 107 340 4 11 357 341 324 302 302 307 314 319 319 318 307 294 278 255 242 244 225 202 191 227
204 211 196 105 101 328 334 150 277 188 198 216 204 183 171 166 162 162 160 156 162 165 154 148 132 342 328 352 4 3 332 302 302 312 322 323 319 317 315 307 303 296 276 258 249 237 221 200 203
151 50 34 46 66 320 244 156 233 217 209 201 197 181 174 169 165 161 159 155 161 164 153 150 145 281 317 341 354 354 323 323 330 328 329 326 319 317 317 312 306 296 282 266 254 235 230 224 220
81 78 30 3 9 260 253 151 232 233 199 179 179 183 182 175 166 162 162 167 173 175 176 176 180 261 303 331 340 330 304 306 313 311 315 319 320 316 314 315 307 299 287 277 261 239 238 230 228
163 136 153 192 226 279 341 205 254 245 180 166 168 176 178 180 177 175 177 178 184 187 188 190 196 238 292 315 310 313 305 295 299 304 304 306 302 296 303 313 311 302 296 291 276 245 247 241 236
135 157 172 144 192 274 312 333 326 263 184 181 183 181 187 189 185 181 181 182 186 190 199 197 190 212 267 285 289 304 309 309 308 310 311 307 307 311 320 325 324 315 304 293 287 263 267 261 248
147 149 100 113 145 298 306 236 225 220 223 218 208 200 201 194 186 183 184 189 193 198 202 188 180 188 220 256 280 303 308 310 314 324 328 326 326 333 338 338 336 334 325 310 293 283 281 265 262
153 123 111 120 150 155 235 263 225 202 205 205 210 204 197 191 188 188 192 195 193 190 183 180 181 187 216 244 287 335 321 320 333 341 331 328 334 342 348 344 345 348 347 340 339 308 292 273 275
172 173 144 147 215 167 181 262 262 199 201 195 201 201 195 189 187 187 188 186 187 190 188 187 191 199 220 234 268 319 318 333 348 341 332 336 340 343 349 353 354 354 354 353 355 332 326 293 278
Height
1533 1534 1534 1535 1537 1542 1541 1534 1528 1524 1522 1523 1521 1523 1527 1531 1535 1542 1538 1535 1536 1537 1538 1538 1538 1538 1538 1538 1538 1538 1538 1538 1538 1538 1538 1538 1538 1538 1538 1538 1537 1537 1537 1537 1537 1536 1536 1536 1536
1533 1534 1535 1535 1540 1549 1543 1532 1528 1523 1523 1523 1524 1526 1529 1533 1535 1536 1536 1535 1536 1537 1537 1537 1538 1538 1537 1537 1537 1537 1537 1536 1536 1536 1536 1536 1536 1536 1536 1536 1536 1536 1536 1536 1535 1535 1535 1535 1535
1533 1533 1534 1534 1540 1546 1540 1530 1526 1523 1523 1523 1527 1529 1532 1535 1536 1536 1536 1536 1536 1537 1537 1537 1537 1537 1536 1536 1536 1536 1535 1535 1535 1535 1535 1535 1535 1535 1535 1535 1534 1534 1534 1534 1534 1534 1534 1534 1534
1533 1534 1533 1537 1541 1536 1532 1528 1524 1523 1524 1525 1528 1532 1535 1537 1537 1536 1536 1536 1537 1537 1537 1536 1536 1536 1535 1535 1534 1534 1534 1534 1533 1533 1533 1533 1533 1533 1533 1533 1533 1533 1533 1532 1532 1532 1532 1532 1533
1532 1532 1536 1541 1539 1533 1529 1526 1524 1524 1525 1528 1529 1534 1537 1538 1537 1537 1537 1537 1537 1537 1536 1536 1535 1535 1534 1533 1533 1532 1532 1532 1531 1531 1531 1531 1531 1531 1530 1530 1530 1530 1531 1531 1531 1531 1531 1531 1531
1532 1532 1542 1547 1540 1532 1528 1526 1526 1526 1528 1529 1531 1534 1538 1538 1538 1538 1538 1537 1537 1537 1536 1536 1535 1534 1533 1532 1531 1530 1530 1529 1529 1529 1528 1528 1528 1528 1528 1528 1528 1528 1528 1529 1529 1529 1529 1529 1530
1532 1534 1540 1541 1539 1535 1529 1527 1527 1527 1528 1530 1531 1535 1537 1538 1538 1538 1538 1537 1537 1536 1536 1535 1534 1533 1532 1531 1530 1529 1528 1527 1526 1526 1525 1525 1525 1525 1525 1526 1526 1526 1526 1526 1526 1527 1527 1528 1528
1530 1534 1539 1541 1539 1535 1528 1527 1527 1527 1529 1531 1531 1534 1536 1537 1538 1538 1538 1537 1537 1536 1535 1534 1533 1531 1530 1529 1528 1527 1526 1525 1524 1523 1522 1522 1522 1522 1522 1522 1523 1523 1523 1523 1524 1524 1525 1525 1526
1529 1537 1542 1539 1537 1531 1527 1527 1529 1529 1529 1530 1531 1533 1534 1536 1537 1537 1537 1537 1536 1535 1534 1533 1532 1530 1529 1527 1526 1525 1524 1523 1522 1520 1520 1519 1519 1519 1519 1519 1519 1519 1520 1520 1521 1522 1523 1523 1524
1528 1539 1537 1531 1529 1527 1526 1526 1528 1530 1531 1532 1533 1534 1534 1535 1536 1536 1536 1536 1535 1534 1533 1532 1530 1529 1527 1526 1524 1523 1522 1521 1520 1518 1517 1517 1516 1516 1516 1516 1516 1516 1516 1517 1518 1519 1520 1521 1521
1527 1532 1530 1528 1526 1525 1525 1526 1527 1529 1532 1531 1531 1533 1534 1534 1535 1535 1535 1535 1534 1533 1532 1530 1529 1527 1526 1524 1522 1521 1520 1518 1517 1516 1515 1514 1513 1513 1513 1512 1513 1513 1513 1514 1514 1515 1517 1518 1519
1527 1528 1528 1528 1526 1525 1525 1525 1527 1527 1527 1528 1530 1531 1532 1533 1533 1533 1533 1533 1533 1531 1530 1529 1527 1525 1524 1522 1520 1518 1517 1516 1514 1513 1513 1511 1511 1510 1510 1509 1509 1510 1510 1511 1511 1512 1513 1514 1515
1526 1526 1527 1526 1526 1525 1524 1524 1524 1525 1526 1528 1529 1530 1531 1531 1532 1532 1532 1532 1531 1530 1528 1527 1525 1523 1522 1520 1518 1516 1514 1513 1512 1511 1510 1509 1508 1507 1507 1506 1506 1507 1507 1507 1508 1509 1510 1511 1512
1523 1524 1525 1526 1524 1524 1525 1525 1525 1525 1526 1527 1528 1528 1529 1529 1530 1530 1530 1530 1529 1528 1527 1525 1523 1522 1520 1517 1515 1514 1512 1511 1509 1508 1507 1506 1505 1505 1504 1504 1504 1504 1504 1504 1504 1506 1507 1508 1509
1522 1525 1527 1526 1524 1523 1524 1526 1523 1522 1524 1525 1526 1527 1527 1528 1528 1528 1528 1528 1527 1526 1525 1524 1522 1520 1518 1516 1513 1512 1510 1508 1507 1505 1504 1504 1503 1502 1501 1501 1501 1501 1501 1501 1502 1502 1503 1504 1506
1523 1528 1532 1525 1523 1522 1527 1531 1520 1520 1522 1523 1524 1525 1526 1527 1527 1527 1527 1527 1526 1525 1524 1522 1521 1518 1516 1514 1512 1510 1508 1506 1505 1503 1502 1501 1500 1499 1498 1498 1498 1498 1498 1498 1498 1499 1500 1501 1502
1529 1535 1533 1526 1521 1521 1524 1526 1518 1519 1520 1521 1523 1523 1524 1525 1526 1526 1526 1525 1525 1524 1522 1521 1519 1517 1515 1513 1511 1508 1506 1504 1503 1501 1500 1498 1497 1496 1495 1495 1494 1494 1494 1495 1495 1496 1497 1498 1499
1533 1533 1530 1527 1519 1520 1523 1522 1517 1517 1518 1519 1520 1521 1522 1523 1524 1525 1525 1524 1524 1523 1521 1520 1518 1516 1514 1512 1510 1507 1505 1503 1501 1499 1497 1496 1495 1493 1492 1492 1491 1491 1491 1492 1492 1493 1494 1495 1496
1520 1525 1527 1521 1514 1518 1520 1519 1515 1515 1517 1518 1519 1520 1521 1522 1523 1524 1524 1523 1523 1522 1520 1518 1517 1515 1513 1510 1508 1506 1504 1502 1499 1497 1496 1494 1492 1491 1490 1489 1488 1488 1488 1489 1489 1490 1491 1492 1493
1518 1523 1524 1518 1511 1516 1519 1518 1513 1513 1514 1515 1517 1518 1519 1521 1522 1523 1523 1522 1521 1520 1519 1517 1516 1514 1512 1510 1507 1505 1503 1501 1498 1496 1494 1492 1490 1489 1487 1486 1486 1486 1486 1486 1487 1488 1488 1489 1491
1518 1521 1520 1518 1513 1513 1517 1523 1517 1513 1514 1515 1516 1516 1517 1518 1520 1521 1521 1521 1520 1519 1518 1516 1514 1513 1511 1509 1507 1505 1502 1500 1497 1495 1493 1490 1488 1486 1485 1484 1483 1483 1483 1483 1484 1485 1486 1487 1489
1519 1511 1511 1513 1521 1528 1521 1538 1523 1517 1516 1515 1516 1516 1517 1518 1518 1519 1519 1519 1519 1518 1517 1515 1513 1512 1510 1508 1506 1503 1501 1499 1496 1494 1491 1489 1487 1485 1483 1482 1481 1481 1481 1481 1482 1482 1484 1485 1486
1511 1505 1508 1512 1519 1527 1525 1535 1531 1519 1519 1516 1514 1515 1515 1516 1517 1518 1518 1518 1517 1517 1516 1514 1513 1511 1509 1507 1505 1503 1501 1498 1496 1493 1490 1488 1486 1483 1482 1480 1479 1479 1478 1478 1479 1480 1481 1482 1483
1504 1508 1514 1522 1529 1539 1526 1534 1531 1523 1516 1513 1513 1513 1514 1515 1516 1516 1517 1517 1516 1516 1515 1513 1512 1510 1508 1506 1504 1502 1500 1497 1495 1492 1489 1487 1484 1482 1480 1478 1477 1476 1476 1476 1476 1477 1478 1479 1480
1508 1524 1541 1542 1550 1542 1524 1528 1527 1512 1508 1508 1510 1512 1513 1514 1514 1515 1515 1515 1515 1514 1514 1512 1511 1509 1508 1506 1504 1502 1499 1497 1494 1491 1488 1486 1483 1481 1479 1477 1475 1474 1474 1474 1474 1475 1475 1476 1477
1509 1521 1541 1548 1549 1541 1525 1528 1520 1507 1507 1507 1508 1510 1511 1512 1513 1513 1513 1514 1513 1513 1512 1511 1510 1508 1507 1505 1503 1501 1499 1496 1494 1491 1488 1485 1483 1480 1478 1476 1474 1473 1472 1472 1472 1472 1473 1474 1474
1509 1518 1519 1534 1535 1541 1535 1525 1515 1509 1509 1509 1509 1509 1510 1510 1511 1511 1512 1512 1512 1512 1511 1510 1509 1508 1506 1504 1502 1500 1498 1496 1493 1490 1488 1485 1482 1480 1477 1475 1473 1471 1470 1470 1470 1470 1471 1471 1472
1502 1509 1523 1532 1542 1547 1536 1530 1528 1514 1510 1508 1508 1508 1508 1509 1509 1510 1510 1511 1511 1511 1510 1509 1508 1507 1505 1504 1502 1500 1497 1495 1493 1490 1487 1484 1482 1479 1476 1474 1472 1470 1469 1468 1468 1468 1468 1469 1470
1504 1508 1520 1533 1537 1546 1545 1535 1507 1505 1504 1504 1504 1504 1505 1506 1507 1508 1509 1509 1510 1509 1509 1508 1507 1506 1505 1503 1501 1499 1497 1495 1492 1490 1487 1484 1481 1479 1476 1474 1471 1470 1468 1467 1466 1466 1467 1467 1467
1500 1505 1516 1529 1532 1537 1543 1532 1498 1498 1498 1499 1500 1501 1503 1504 1505 1506 1507 1508 1508 1508 1508 1507 1506 1505 1504 1502 1500 1499 1496 1494 1492 1489 1486 1484 1481 1479 1476 1473 1471 1469 1468 1466 1465 1465 1465 1465 1465